Weather History for Waterville, ME

Change the Weather History Date:

Friday, March 22, 2013

  Actual Average Record
Temperature  
Mean Temperature 29 °F -  
Max Temperature 37 °F 45 °F 82 °F (2012)
Min Temperature 21 °F 22 °F 6 °F (1988)
Degree Days  
Heating Degree Days 36    
Moisture  
Dew Point 13 °F    
Average Humidity 52    
Maximum Humidity 68    
Minimum Humidity 33    
Precipitation  
Precipitation 0.00 in - - ()
Sea Level Pressure  
Sea Level Pressure 29.57 in    
Wind  
Wind Speed 9 mph (NW)    
Max Wind Speed 16 mph    
Max Gust Speed 25 mph    
Visibility 10 miles    
Events      
Averages and records for this station are not official NWS values.
T = Trace of Precipitation, MM = Missing Value Source: NWS Daily Summary

Daily Weather History Graph

Daily Weather History Graph

Search for Another Location

Airport:

Trip Planner

Search our weather history database for the weather conditions in past years. The results will help you decide how hot, cold, wet, or windy it might be!

Date:

Astronomy

Mar. 22, 2013 Rise Set
Actual Time 6:37 AM EDT 6:53 PM EDT
Civil Twilight 6:08 AM EDT 7:23 PM EDT
Nautical Twilight 5:34 AM EDT 7:57 PM EDT
Astronomical Twilight 4:59 AM EDT 8:32 PM EDT
Moon 2:08 PM EDT (3/22) 3:46 AM EDT (3/22)
Length of Visible Light 13h 14m
Length of Day
12h 16m
Waxing Gibbous, 77% of the Moon is Illuminated
Mar 22
Waxing Gibbous
Mar 27
Full
Apr 3
Last Quarter
Apr 10
New
Apr 18
First Quarter

Hourly Weather History & Observations

Time (EDT) Temp. Windchill Dew Point Humidity Pressure Visibility Wind Dir Wind Speed Gust Speed Precip Events Conditions
12:15 AM 26.6 °F 18.2 °F 14.0 °F 59% 29.57 in 10.0 mi NNW 8.1 mph - N/A   Clear
12:35 AM 26.6 °F 18.2 °F 14.0 °F 59% 29.57 in 10.0 mi NNW 8.1 mph - N/A   Clear
12:55 AM 26.6 °F 16.8 °F 14.0 °F 59% 29.57 in 10.0 mi NNW 10.4 mph - N/A   Clear
1:15 AM 24.8 °F 14.6 °F 14.0 °F 64% 29.57 in 10.0 mi North 10.4 mph - N/A   Clear
1:55 AM 24.8 °F 14.6 °F 14.0 °F 64% 29.57 in 10.0 mi NNW 10.4 mph - N/A   Clear
2:15 AM 24.8 °F 14.6 °F 14.0 °F 64% 29.57 in 10.0 mi NNW 10.4 mph - N/A   Clear
2:35 AM 24.8 °F 15.3 °F 14.0 °F 64% 29.57 in 10.0 mi NNW 9.2 mph - N/A   Clear
2:55 AM 24.8 °F 14.6 °F 14.0 °F 64% 29.57 in 10.0 mi NNW 10.4 mph - N/A   Clear
3:15 AM 24.8 °F 14.6 °F 12.2 °F 59% 29.57 in 10.0 mi NNW 10.4 mph - N/A   Clear
3:35 AM 24.8 °F 16.1 °F 12.2 °F 59% 29.57 in 10.0 mi North 8.1 mph - N/A   Clear
3:55 AM 24.8 °F 16.1 °F 14.0 °F 64% 29.56 in 10.0 mi NNW 8.1 mph - N/A   Clear
4:15 AM 24.8 °F 15.3 °F 12.2 °F 59% 29.57 in 10.0 mi NNW 9.2 mph - N/A   Clear
4:35 AM 23.0 °F 12.4 °F 12.2 °F 63% 29.56 in 10.0 mi NNW 10.4 mph - N/A   Clear
4:55 AM 23.0 °F 11.7 °F 12.2 °F 63% 29.56 in 10.0 mi NNW 11.5 mph - N/A   Clear
5:15 AM 23.0 °F 11.7 °F 12.2 °F 63% 29.56 in 10.0 mi NNW 11.5 mph - N/A   Clear
5:35 AM 23.0 °F 12.4 °F 12.2 °F 63% 29.57 in 10.0 mi NNW 10.4 mph - N/A   Clear
5:55 AM 23.0 °F 11.7 °F 12.2 °F 63% 29.57 in 10.0 mi NNW 11.5 mph - N/A   Clear
6:15 AM 23.0 °F 12.4 °F 12.2 °F 63% 29.58 in 10.0 mi NNW 10.4 mph - N/A   Clear
6:35 AM 23.0 °F 13.9 °F 12.2 °F 63% 29.59 in 10.0 mi NNW 8.1 mph - N/A   Clear
6:55 AM 21.2 °F 10.9 °F 12.2 °F 68% 29.58 in 10.0 mi NNW 9.2 mph - N/A   Clear
7:15 AM 23.0 °F 11.7 °F 12.2 °F 63% 29.59 in 10.0 mi NNW 11.5 mph - N/A   Clear
7:55 AM 24.8 °F 14.6 °F 12.2 °F 59% 29.59 in 10.0 mi NNW 10.4 mph - N/A   Clear
8:15 AM 24.8 °F 15.3 °F 14.0 °F 64% 29.59 in 10.0 mi North 9.2 mph - N/A   Clear
8:35 AM 24.8 °F 16.9 °F 14.0 °F 64% 29.59 in 10.0 mi NNW 6.9 mph - N/A   Clear
8:55 AM 26.6 °F 18.2 °F 14.0 °F 59% 29.60 in 10.0 mi NNW 8.1 mph - N/A   Clear
9:15 AM 26.6 °F 18.2 °F 12.2 °F 55% 29.60 in 10.0 mi NNW 8.1 mph - N/A   Clear
9:35 AM 26.6 °F 18.2 °F 15.8 °F 64% 29.60 in 10.0 mi NNW 8.1 mph - N/A   Partly Cloudy
9:55 AM 28.4 °F 19.7 °F 15.8 °F 59% 29.59 in 10.0 mi NW 9.2 mph - N/A   Scattered Clouds
10:15 AM 30.2 °F 21.3 °F 15.8 °F 55% 29.59 in 10.0 mi NNW 10.4 mph - N/A   Partly Cloudy
10:35 AM 30.2 °F 23.4 °F 15.8 °F 55% 29.59 in 10.0 mi NW 6.9 mph - N/A   Scattered Clouds
10:55 AM 32.0 °F 24.8 °F 17.6 °F 55% 29.59 in 10.0 mi NW 8.1 mph - N/A   Mostly Cloudy
11:15 AM 33.8 °F 27.0 °F 15.8 °F 48% 29.58 in 10.0 mi North 8.1 mph - N/A   Mostly Cloudy
11:35 AM 33.8 °F 27.0 °F 15.8 °F 48% 29.58 in 10.0 mi WNW 8.1 mph - N/A   Partly Cloudy
11:55 AM 33.8 °F 27.7 °F 15.8 °F 48% 29.58 in 10.0 mi West 6.9 mph - N/A   Clear
12:15 PM 33.8 °F 26.4 °F 14.0 °F 44% 29.57 in 10.0 mi NW 9.2 mph 16.1 mph N/A   Partly Cloudy
12:35 PM 35.6 °F 28.0 °F 14.0 °F 41% 29.57 in 10.0 mi NNW 10.4 mph 17.3 mph N/A   Mostly Cloudy
12:55 PM 33.8 °F 26.4 °F 12.2 °F 41% 29.56 in 10.0 mi NW 9.2 mph - N/A   Scattered Clouds
1:15 PM 37.4 °F 34.9 °F 12.2 °F 36% 29.55 in 10.0 mi WNW 3.5 mph - N/A   Mostly Cloudy
1:35 PM 35.6 °F 28.0 °F 10.4 °F 35% 29.55 in 10.0 mi WNW 10.4 mph 17.3 mph N/A   Overcast
1:55 PM 35.6 °F 31.7 °F 12.2 °F 38% 29.54 in 10.0 mi NW 4.6 mph - N/A   Overcast
2:15 PM 35.6 °F 27.5 °F 10.4 °F 35% 29.54 in 10.0 mi NW 11.5 mph 16.1 mph N/A   Overcast
2:35 PM 37.4 °F 29.8 °F 10.4 °F 33% 29.53 in 10.0 mi WSW 11.5 mph - N/A   Overcast
2:55 PM 35.6 °F 26.6 °F 10.4 °F 35% 29.53 in 10.0 mi NNW 13.8 mph 18.4 mph N/A   Overcast
3:15 PM 35.6 °F 27.1 °F 10.4 °F 35% 29.53 in 10.0 mi WNW 12.7 mph - N/A   Mostly Cloudy
3:35 PM 35.6 °F 28.0 °F 12.2 °F 38% 29.54 in 10.0 mi West 10.4 mph 16.1 mph N/A   Mostly Cloudy
3:55 PM 35.6 °F 28.0 °F 12.2 °F 38% 29.54 in 10.0 mi West 10.4 mph 19.6 mph N/A   Mostly Cloudy
4:15 PM 35.6 °F 27.1 °F 12.2 °F 38% 29.54 in 10.0 mi NW 12.7 mph 17.3 mph N/A   Overcast
4:35 PM 35.6 °F 25.9 °F 12.2 °F 38% 29.54 in 10.0 mi NW 16.1 mph 25.3 mph N/A   Overcast
4:55 PM 35.6 °F 27.1 °F 12.2 °F 38% 29.55 in 10.0 mi WNW 12.7 mph 19.6 mph N/A   Mostly Cloudy
5:15 PM 35.6 °F 27.1 °F 12.2 °F 38% 29.55 in 10.0 mi WNW 12.7 mph 16.1 mph N/A   Overcast
5:35 PM 35.6 °F 28.6 °F 12.2 °F 38% 29.55 in 10.0 mi WNW 9.2 mph 19.6 mph N/A   Overcast
5:55 PM 33.8 °F 25.8 °F 12.2 °F 41% 29.56 in 10.0 mi WNW 10.4 mph 16.1 mph N/A   Mostly Cloudy
6:16 PM 33.8 °F 25.3 °F 15.8 °F 48% 29.56 in 10.0 mi NW 11.5 mph 19.6 mph N/A   Mostly Cloudy
6:35 PM 33.8 °F 24.8 °F 14.0 °F 44% 29.57 in 10.0 mi NW 12.7 mph 17.3 mph N/A   Mostly Cloudy
6:55 PM 33.8 °F 27.7 °F 14.0 °F 44% 29.57 in 10.0 mi WNW 6.9 mph - N/A   Mostly Cloudy
7:15 PM 33.8 °F 27.7 °F 15.8 °F 48% 29.57 in 10.0 mi WNW 6.9 mph - N/A   Mostly Cloudy
7:35 PM 32.0 °F 24.8 °F 14.0 °F 48% 29.57 in 10.0 mi WNW 8.1 mph - N/A   Overcast
7:55 PM 32.0 °F 23.6 °F 14.0 °F 48% 29.58 in 10.0 mi WNW 10.4 mph - N/A   Scattered Clouds
8:15 PM 30.2 °F 24.3 °F 15.8 °F 55% 29.58 in 10.0 mi West 5.8 mph - N/A   Clear
8:35 PM 30.2 °F 25.4 °F 15.8 °F 55% 29.58 in 10.0 mi West 4.6 mph - N/A   Clear
8:55 PM 30.2 °F 21.9 °F 14.0 °F 51% 29.58 in 10.0 mi West 9.2 mph - N/A   Clear
9:15 PM 30.2 °F 25.4 °F 14.0 °F 51% 29.58 in 10.0 mi WSW 4.6 mph - N/A   Clear
9:35 PM 28.4 °F 22.2 °F 14.0 °F 55% 29.58 in 10.0 mi West 5.8 mph - N/A   Clear
9:56 PM 28.4 °F 24.6 °F 14.0 °F 55% 29.59 in 10.0 mi WNW 3.5 mph - N/A   Clear
10:15 PM 28.4 °F 24.6 °F 14.0 °F 55% 29.59 in 10.0 mi NW 3.5 mph - N/A   Clear
10:35 PM 28.4 °F 21.2 °F 15.8 °F 59% 29.59 in 10.0 mi WNW 6.9 mph - N/A   Clear
10:55 PM 28.4 °F 20.4 °F 14.0 °F 55% 29.59 in 10.0 mi WNW 8.1 mph - N/A   Clear
11:15 PM 28.4 °F 19.1 °F 14.0 °F 55% 29.59 in 10.0 mi West 10.4 mph - N/A   Clear
11:35 PM 26.6 °F 19.1 °F 14.0 °F 59% 29.59 in 10.0 mi WNW 6.9 mph - N/A   Clear
11:55 PM 26.6 °F 16.8 °F 14.0 °F 59% 29.59 in 10.0 mi WNW 10.4 mph - N/A   Clear